Regional Weather Roundup
Issued by NWS

Home | Current Version | Previous Version | Graphics & Text | Print | Product List | Glossary On
Versions: 1 2 3 4 5 6 7 8 9 10 11 12 13 14 15 16 17 18 19 20 21 22 23 24 25 26 27 28 29 30 31 32 33 34 35 36 37 38 39 40 41 42 43 44 45 46 47 48 49 50
000
ASUS43 KTOP 060359
RWRKS

WEATHER ROUNDUP FOR KANSAS
NATIONAL WEATHER SERVICE GOODLAND KS
1000 PM CST THU MAR 05 2015

NOTE:  "FAIR" INDICATES FEW OR NO CLOUDS BELOW 12,000 FEET WITH NO
SIGNIFICANT WEATHER AND/OR OBSTRUCTIONS TO VISIBILITY.

KSZ001>006-013>018-027>032-041>047-060500-
NORTHWEST KANSAS

CITY           SKY/WX    TMP DP  RH WIND       PRES   REMARKS
GOODLAND       CLEAR     28  18  66 W10       30.29R WCI  19
HAYS           CLEAR     30   9  40 SW6       30.32S
HILL CITY      CLEAR     35  13  40 SW7       30.29R
RUSSELL        CLEAR     32  13  45 S13       30.31S WCI  22
$$

KSZ061>065-074>080-084>089-060500-
SOUTHWEST KANSAS

CITY           SKY/WX    TMP DP  RH WIND       PRES   REMARKS
DODGE CITY     MOCLDY    31  15  52 S7        30.35R
ELKHART          N/A     32  19  58 S10         N/A  WCI  24
GARDEN CITY    MOCLDY    29  18  63 S7        30.32S
GREAT BEND     PTCLDY    30  16  55 S14       30.36S WCI  20
LIBERAL        CLEAR     30  19  64 SW10      30.35S WCI  21
$$

KSZ066>073-081>083-090>101-060500-
SOUTHEAST KANSAS

CITY           SKY/WX    TMP DP  RH WIND       PRES   REMARKS
CHANUTE        CLEAR     26  18  71 SE7       30.50R
COFFEYVILLE    CLEAR     29  19  66 S5        30.52R
HUTCHINSON     PTCLDY    34  20  56 S14       30.40R WCI  25
MEDICINE LODGE   N/A     31  22  69 S7        30.41R
NEWTON         MOCLDY    34  18  51 S14       30.42S WCI  24
PARSONS        CLEAR     30  19  63 SE3       30.51R
WICHITA INTL   PTCLDY    32  20  61 S13       30.44R WCI  22
WICHITA JABRA  PTCLDY    33  19  56 S14       30.44R WCI  23
WINFIELD       CLEAR     30  18  60 SW9       30.48R
$$

KSZ007>012-019>026-033>040-048>060-102>105-060500-
NORTHEAST KANSAS

CITY           SKY/WX    TMP DP  RH WIND       PRES   REMARKS
CONCORDIA      CLEAR     32  14  47 S13       30.33S WCI  22
EMPORIA        CLEAR     26  18  71 S9        30.44S
LAWRENCE       PTCLDY    23  14  68 SE9       30.47F
MANHATTAN      CLEAR     29  16  58 VRB5      30.40S
OLATHE IND     CLEAR     24  13  62 SE10      30.48S WCI  14
OLATHE EXE     FAIR      24  14  65 S9        30.47S
SALINA         FAIR      28  16  60 S7        30.37S
TOPEKA BILLARD PTCLDY    28  13  53 SE9       30.45F
TOPEKA FORBES  PTCLDY    27  13  55 SE12      30.44S WCI  17
$$


USA.gov is the U.S. government's official web portal to all federal, state and local government web resources and services.